COSMOS 2611

导读

**COSMOS 2611(NORAD编号68759)卫星摘要** COSMOS 2611是俄罗斯于2026年4月17日由联盟火箭发射的军事卫星,隶属于俄罗斯“宇宙”(COSMOS)系列军用卫星计划,该系列自苏联时期延续至今,主要承担军事侦察、通信或技术试验任务。根据公开轨道数据,其NORAD编号为68759,国际编号为2026-083G,运行于近地轨道,轨道倾角96.95度,近地点高度539公里,远地点高度554公里,与同期发射的其他6个航天器共同进入太空,目前状态为在轨运行,具体任务细节尚未公开。(150字)

Basic Information
目录编号:
68759
目录名称:
COSMOS 2611
国际标识:
2026-083G
轨道中心:
EARTH
卫星名称:
COSMOS 2611
卫星全名:
COSMOS 2611
卫星状态:
在轨 (已飞行151 天)
发射日期:
2026-04-16 UTC
国别 :
俄罗斯(独联体) (CIS)
星等 :
--
This satellite is enrolled in the Space Conjunction Data Service (SCDS) and the current flight risk assessment level is: No High Risk
Orbit Information
数据来源 国际轨道数据
星历时间: 2026-09-14T02:16:47+0800
8小时前
查看轨道信息
半长轴: 6925.043km
偏心率: 0.0012574
轨道倾角: 97.824°
近地点辐角 117.362°
升交点赤经 35.425°
平近点角 242.888°
近地点: 538.198km
远地点: 555.614km
周期: 95.586分钟
每日圈数: 15.065
Detailed Information
使用方式:
暂无
2D Orbit Map
3D Orbit Map
Orbit Altitude Analysis Chart
Orbit Inclination Analysis Chart
Orbit Comprehensive Analysis Chart
View Comprehensive Chart
Conjunction Data List
Event ID Objects TCA Miss Dist (km) Collision Risk Probability Collision Risk Index (CRI) Action
CDM_260916-070902-423606-875921
2026-09-16T
07:09:42+0000
2.126 km
极远距离
2.510547E-6 低风险 0.43
CDM_260915-081003-832606-875924
2026-09-15T
08:10:05+0000
2.141 km
极远距离
1.903781E-6 低风险 0.41
Miss Distance Evolution Trend with All Objects Subscribe to Flight Safety Assessment
Collision Probability Evolution Trend with All Objects Subscribe to Flight Safety Assessment